Weather History for Valley City, ND

Change the Weather History Date:

Tuesday, January 1, 2013

  Actual Average (KJMS) Record (KJMS)
Temperature  
Mean Temperature 3 °F 11 °F  
Max Temperature 19 °F 20 °F 47 °F (1905)
Min Temperature -13 °F 1 °F -28 °F (1919)
Degree Days  
Heating Degree Days 62 54  
Month to date heating degree days 54  
Since 1 July heating degree days 3714  
Cooling Degree Days 0 0  
Month to date cooling degree days 0  
Year to date cooling degree days 0  
Moisture  
Dew Point 4 °F    
Average Humidity 91    
Maximum Humidity 100    
Minimum Humidity 77    
Precipitation  
Precipitation 0.10 in 0.02 in 0.32 in (1976)
Month to date precipitation 0.02  
Year to date precipitation 0.02  
Sea Level Pressure  
Sea Level Pressure 30.01 in    
Wind  
Wind Speed 7 mph (SW)    
Max Wind Speed 16 mph    
Max Gust Speed 21 mph    
Visibility 8 miles    
Events Fog , Snow    
T = Trace of Precipitation, MM = Missing Value Source: NWS Daily Summary

Daily Weather History Graph

Daily Weather History Graph

Search for Another Location

Airport:

Trip Planner

Search our weather history database for the weather conditions in past years. The results will help you decide how hot, cold, wet, or windy it might be!

Date:

Astronomy

Jan. 01, 2013 Rise Set
Actual Time 8:17 AM CST 4:54 PM CST
Civil Twilight 7:42 AM CST 5:29 PM CST
Nautical Twilight 7:03 AM CST 6:07 PM CST
Astronomical Twilight 6:26 AM CST 6:44 PM CST
Moon 9:45 PM CST (1/1) 10:13 AM CST (1/1)
Length of Visible Light 9h 46m
Length of Day
8h 36m
Waning Gibbous, 83% of the Moon is Illuminated
Jan 1
Waning Gibbous
Jan 4
Last Quarter
Jan 11
New
Jan 18
First Quarter
Jan 26
Full

Hourly Weather History & Observations

Time (CST) Temp. Windchill Dew Point Humidity Pressure Visibility Wind Dir Wind Speed Gust Speed Precip Events Conditions
12:15 AM -11.2 °F -24.8 °F -16.6 °F 77% 30.17 in - South 5.8 mph - N/A   Clear
12:35 AM -11.2 °F -23.0 °F -16.6 °F 77% 30.17 in - SSW 4.6 mph - N/A   Clear
12:55 AM -11.2 °F - -16.6 °F 77% 30.17 in - Calm Calm - N/A   Clear
1:15 AM -13.0 °F -28.6 °F -16.6 °F 84% 30.15 in - SSW 6.9 mph - N/A   Unknown
1:35 AM -11.2 °F -24.8 °F -16.6 °F 77% 30.15 in 10.0 mi SSW 5.8 mph - N/A   Scattered Clouds
1:55 AM -13.0 °F -27.0 °F -18.4 °F 77% 30.14 in - SSW 5.8 mph - N/A   Scattered Clouds
2:15 AM -13.0 °F -25.1 °F -18.4 °F 77% 30.14 in - South 4.6 mph - N/A   Clear
2:35 AM -13.0 °F - -16.6 °F 84% 30.14 in - Calm Calm - N/A   Unknown
2:55 AM -11.2 °F -20.6 °F -16.6 °F 77% 30.14 in - SSW 3.5 mph - N/A   Clear
3:15 AM -11.2 °F -20.6 °F -16.6 °F 77% 30.13 in - SW 3.5 mph - N/A   Clear
3:35 AM -7.6 °F -20.6 °F -13.0 °F 77% 30.13 in 10.0 mi SSW 5.8 mph - N/A   Clear
4:15 AM -9.4 °F -20.9 °F -13.0 °F 84% 30.14 in 10.0 mi NNW 4.6 mph - N/A   Clear
4:35 AM -7.6 °F -18.8 °F -11.2 °F 84% 30.14 in 10.0 mi NNW 4.6 mph - N/A   Scattered Clouds
4:55 AM -7.6 °F - -13.0 °F 77% 30.14 in 10.0 mi Calm Calm - N/A   Mostly Cloudy
5:15 AM -9.4 °F - -13.0 °F 84% 30.13 in 10.0 mi Calm Calm - N/A   Overcast
5:35 AM -7.6 °F -16.5 °F -13.0 °F 77% 30.12 in 8.0 mi South 3.5 mph - N/A   Overcast
6:15 AM -5.8 °F -14.5 °F -9.4 °F 84% 30.11 in 10.0 mi South 3.5 mph - N/A   Overcast
6:35 AM -4.0 °F - -9.4 °F 78% 30.11 in 0.8 mi Calm Calm - N/A   Haze
6:55 AM -4.0 °F - -7.6 °F 85% 30.11 in 0.2 mi Calm Calm - N/A Snow Heavy Snow
7:15 AM -2.2 °F -10.4 °F -7.6 °F 78% 30.10 in 0.2 mi SSE 3.5 mph - N/A Fog Light Freezing Fog
7:35 AM -2.2 °F -12.5 °F -7.6 °F 78% 30.09 in 0.2 mi SSW 4.6 mph - N/A Fog Light Freezing Fog
7:55 AM -2.2 °F -15.6 °F -5.8 °F 85% 30.08 in 0.5 mi South 6.9 mph - N/A Snow Snow
8:15 AM -2.2 °F -12.5 °F -5.8 °F 85% 30.08 in 0.2 mi South 4.6 mph - N/A Fog Light Freezing Fog
8:35 AM -0.4 °F -10.4 °F -2.2 °F 92% 30.08 in 5.0 mi South 4.6 mph - N/A   Overcast
9:15 AM -0.4 °F -13.4 °F -2.2 °F 92% 30.07 in 9.0 mi South 6.9 mph - N/A   Overcast
9:35 AM 1.4 °F -9.9 °F -0.4 °F 92% 30.06 in 10.0 mi South 5.8 mph - N/A   Overcast
9:55 AM 5.0 °F -6.9 °F 1.4 °F 85% 30.06 in 10.0 mi South 6.9 mph - N/A   Overcast
10:15 AM 6.8 °F -4.8 °F 5.0 °F 92% 30.05 in 10.0 mi SSW 6.9 mph - N/A   Overcast
10:35 AM 12.2 °F -1.0 °F 10.4 °F 92% 30.05 in 9.0 mi SW 10.4 mph - N/A   Overcast
10:55 AM 14.0 °F 1.2 °F 14.0 °F 100% 30.04 in 9.0 mi SW 10.4 mph - N/A   Overcast
11:15 AM 15.8 °F 3.4 °F 15.8 °F 100% 30.04 in 9.0 mi SW 10.4 mph - N/A   Overcast
11:35 AM 15.8 °F 3.4 °F 15.8 °F 100% 30.03 in 8.0 mi SW 10.4 mph - N/A   Overcast
11:55 AM 17.6 °F 5.7 °F 17.6 °F 100% 30.02 in 7.0 mi WSW 10.4 mph - N/A   Overcast
12:15 PM 17.6 °F 3.7 °F 17.6 °F 100% 30.01 in 7.0 mi WSW 13.8 mph - N/A   Overcast
12:35 PM 17.6 °F 3.7 °F 17.6 °F 100% 30.00 in 6.0 mi SW 13.8 mph 20.7 mph N/A Snow Light Snow
12:55 PM 19.4 °F 5.0 °F 19.4 °F 100% 29.99 in 2.5 mi WSW 16.1 mph - N/A Snow Light Snow
1:15 PM 19.4 °F 6.0 °F 19.4 °F 100% 29.99 in 4.0 mi WSW 13.8 mph - N/A Snow Light Snow
1:35 PM 19.4 °F 6.0 °F 19.4 °F 100% 29.97 in 10.0 mi WSW 13.8 mph - N/A   Overcast
2:15 PM 19.4 °F 5.5 °F 19.4 °F 100% 29.96 in 10.0 mi SW 15.0 mph 18.4 mph N/A   Overcast
2:35 PM 19.4 °F 6.6 °F 19.4 °F 100% 29.95 in 8.0 mi WSW 12.7 mph - N/A   Overcast
2:55 PM 19.4 °F 6.0 °F 19.4 °F 100% 29.95 in 10.0 mi SW 13.8 mph - N/A   Overcast
3:15 PM 19.4 °F 6.0 °F 19.4 °F 100% 29.94 in 10.0 mi SSW 13.8 mph - N/A Snow Light Snow
3:35 PM 19.4 °F 6.0 °F 19.4 °F 100% 29.94 in 10.0 mi SW 13.8 mph - N/A   Partly Cloudy
4:15 PM 17.6 °F 6.4 °F 17.6 °F 100% 29.93 in 10.0 mi SW 9.2 mph - N/A   Clear
4:35 PM 15.8 °F 4.2 °F 15.8 °F 100% 29.93 in 10.0 mi SSW 9.2 mph - N/A   Clear
5:15 PM 14.0 °F 1.2 °F 14.0 °F 100% 29.93 in 10.0 mi SSW 10.4 mph - N/A   Clear
5:35 PM 14.0 °F 1.2 °F 14.0 °F 100% 29.92 in 10.0 mi SSW 10.4 mph - N/A   Clear
5:55 PM 14.0 °F 1.2 °F 14.0 °F 100% 29.91 in 10.0 mi SSW 10.4 mph - N/A   Clear
6:15 PM 14.0 °F 0.5 °F 14.0 °F 100% 29.90 in 10.0 mi SSW 11.5 mph - N/A   Clear
6:35 PM 14.0 °F 0.5 °F 14.0 °F 100% 29.90 in 10.0 mi SSW 11.5 mph - N/A   Clear
6:55 PM 14.0 °F 1.2 °F 14.0 °F 100% 29.90 in 10.0 mi SSW 10.4 mph - N/A   Clear
7:15 PM 14.0 °F 0.5 °F 12.2 °F 93% 29.89 in 10.0 mi SSW 11.5 mph - N/A   Clear
7:35 PM 12.2 °F 0.7 °F 10.4 °F 92% 29.90 in 10.0 mi SW 8.1 mph - N/A   Clear
7:55 PM 10.4 °F 0.8 °F 10.4 °F 100% 29.90 in 10.0 mi SW 5.8 mph - N/A   Clear
8:15 PM 10.4 °F -2.4 °F 8.6 °F 92% 29.89 in 10.0 mi SW 9.2 mph - N/A Snow Light Snow
8:35 PM 8.6 °F -6.3 °F 8.6 °F 100% 29.88 in 10.0 mi SW 11.5 mph - N/A   Clear
8:55 PM 8.6 °F -6.3 °F 6.8 °F 92% 29.87 in 10.0 mi SSW 11.5 mph - N/A   Clear
9:15 PM 8.6 °F -6.3 °F 6.8 °F 92% 29.87 in 10.0 mi SSW 11.5 mph - N/A   Clear
9:35 PM 8.6 °F -6.3 °F 6.8 °F 92% 29.86 in 10.0 mi SW 11.5 mph - N/A   Mostly Cloudy
9:55 PM 12.2 °F -2.5 °F 10.4 °F 92% 29.85 in 10.0 mi SW 12.7 mph - N/A Snow Light Snow
10:15 PM 14.0 °F -2.0 °F 14.0 °F 100% 29.85 in 3.0 mi WSW 16.1 mph - 0.03 in Snow Light Snow
10:35 PM 15.8 °F 2.1 °F 14.0 °F 93% 29.85 in 4.0 mi WSW 12.7 mph - 0.07 in Snow Light Snow
10:55 PM 15.8 °F 2.1 °F 15.8 °F 100% 29.84 in 10.0 mi WSW 12.7 mph - 0.08 in   Overcast
11:15 PM 17.6 °F 4.3 °F 17.6 °F 100% 29.84 in 10.0 mi WSW 12.7 mph - N/A   Overcast
11:35 PM 17.6 °F 4.3 °F 17.6 °F 100% 29.83 in 7.0 mi West 12.7 mph - 0.01 in Snow Light Snow
11:55 PM 19.4 °F 6.0 °F 19.4 °F 100% 29.83 in 5.0 mi West 13.8 mph - 0.02 in Snow Light Snow